Date String (YYYY-MM-DD hh:mm:ss) UTC,Instrument flags,Ambient pressure (hPa),Sample flow (lpm),Bypass flow (lpm),Sample temperature (°C),Ambient temperature (°C),ASC tube jacket temperature (°C),LED temperature (°C),Box temperature (°C),Sample RH (%),Span deviation,Mass concentration (μg/m³),Mass concentration (μg/m³),Mass concentration (μg/m³)
DateTimeUTC,F1_M11,P_M11,Q1_M11,Q2_M11,T1_M11,T2_M11,T3_M11,T4_M11,T5_M11,U1_M11,ZSPAN_M11,X0_M11,X2_M11,X1_M11
2022-07-23 14:00:00,,0825.9,5.00,0.00,29.7,28.3,00.0,38.5,31.7,20.3,0000.0,0016.05,0005.70,0004.30
2022-07-23 14:01:00,,0825.9,4.99,0.00,29.7,28.4,00.0,38.5,31.7,20.4,0000.0,0016.91,0005.66,0004.31
2022-07-23 14:02:00,,0825.9,5.01,0.00,29.8,28.5,00.0,38.5,31.7,20.4,0000.0,0017.82,0005.68,0004.31
2022-07-23 14:03:00,,0826.0,5.00,0.00,29.8,28.6,00.0,38.5,31.8,20.3,0000.0,0017.91,0005.71,0004.32
2022-07-23 14:04:00,,0825.9,5.00,0.00,29.8,28.7,00.0,38.6,31.8,20.2,0000.0,0018.30,0005.70,0004.33
2022-07-23 14:05:00,,0825.8,4.99,0.00,29.9,28.8,00.0,38.6,31.8,20.2,0000.0,0017.46,0005.63,0004.32
2022-07-23 14:06:00,,0825.8,5.00,0.00,29.9,28.9,00.0,38.6,31.9,20.2,0000.0,0017.70,0005.60,0004.31
2022-07-23 14:07:00,,0825.8,5.00,0.00,29.9,28.9,00.0,38.6,31.9,19.9,0000.0,0017.78,0005.58,0004.32
2022-07-23 14:08:00,,0825.8,5.00,0.00,30.0,28.6,00.0,38.6,31.9,19.8,0000.0,0017.52,0005.54,0004.32
2022-07-23 14:09:00,,0826.0,4.99,0.00,29.9,27.8,00.0,38.5,31.8,19.7,0000.0,0017.07,0005.54,0004.33
2022-07-23 14:10:00,,0826.1,5.01,0.00,29.9,27.6,00.0,38.5,31.7,19.7,0000.0,0016.46,0005.55,0004.35
2022-07-23 14:11:00,,0825.9,5.00,0.00,29.8,27.6,00.0,38.5,31.6,19.7,0000.0,0015.79,0005.49,0004.36
2022-07-23 14:12:00,,0825.9,5.01,0.00,29.8,27.7,00.0,38.5,31.6,19.8,0000.0,0014.04,0005.47,0004.37
2022-07-23 14:13:00,,0826.1,5.00,0.00,29.8,27.8,00.0,38.5,31.6,19.8,0000.0,0012.91,0005.47,0004.39
2022-07-23 14:14:00,,0826.2,5.01,0.00,29.8,28.0,00.0,38.5,31.6,20.0,0000.0,0012.73,0005.44,0004.40
2022-07-23 14:15:00,,0826.0,4.99,0.00,29.8,28.1,00.0,38.5,31.6,20.0,0000.0,0012.18,0005.42,0004.41
2022-07-23 14:16:00,,0826.0,5.00,0.00,29.8,28.3,00.0,38.5,31.7,20.3,0000.0,0011.28,0005.38,0004.42
2022-07-23 14:17:00,,0825.9,4.99,0.00,29.8,28.4,00.0,38.5,31.7,20.3,0000.0,0011.17,0005.39,0004.43
2022-07-23 14:18:00,,0825.8,5.00,0.00,29.8,28.5,00.0,38.6,31.7,20.1,0000.0,0011.09,0005.38,0004.44
2022-07-23 14:19:00,,0825.8,5.01,0.00,29.8,28.6,00.0,38.6,31.8,20.0,0000.0,0011.18,0005.34,0004.45
2022-07-23 14:20:00,,0825.8,5.00,0.00,29.9,28.7,00.0,38.6,31.8,19.8,0000.0,0011.12,0005.31,0004.45
2022-07-23 14:21:00,,0825.8,4.99,0.00,29.9,28.8,00.0,38.6,31.9,19.8,0000.0,0010.96,0005.28,0004.43
2022-07-23 14:22:00,,0825.9,5.00,0.00,29.9,28.8,00.0,38.6,31.9,19.9,0000.0,0010.86,0005.27,0004.43
2022-07-23 14:23:00,,0825.8,4.99,0.00,29.9,28.5,00.0,38.6,31.9,19.8,0000.0,0010.91,0005.28,0004.43
2022-07-23 14:24:00,,0825.8,5.01,0.00,29.9,27.8,00.0,38.5,31.7,19.7,0000.0,0010.99,0005.25,0004.43
2022-07-23 14:25:00,,0825.8,4.99,0.00,29.9,27.7,00.0,38.5,31.7,19.7,0000.0,0011.14,0005.25,0004.43
2022-07-23 14:26:00,,0825.8,5.00,0.00,29.9,27.7,00.0,38.5,31.7,19.8,0000.0,0011.89,0005.26,0004.43
2022-07-23 14:27:00,,0825.8,5.01,0.00,29.8,27.9,00.0,38.5,31.6,19.9,0000.0,0011.83,0005.24,0004.44
2022-07-23 14:28:00,,0825.8,4.99,0.00,29.8,28.0,00.0,38.5,31.7,20.0,0000.0,0010.82,0005.24,0004.44
2022-07-23 14:29:00,,0825.8,5.00,0.00,29.8,28.1,00.0,38.6,31.7,20.1,0000.0,0010.93,0005.23,0004.43
2022-07-23 14:30:00,,0825.8,5.00,0.00,29.8,28.3,00.0,38.6,31.7,20.3,0000.0,0011.10,0005.22,0004.43
2022-07-23 14:31:00,,0825.9,5.00,0.00,29.8,28.4,00.0,38.6,31.8,21.1,0000.0,0010.81,0005.19,0004.43
2022-07-23 14:32:00,,0825.9,5.00,0.00,29.9,28.5,00.0,38.6,31.8,20.7,0000.0,0011.59,0005.21,0004.45
2022-07-23 14:33:00,,0826.0,5.01,0.00,29.9,28.6,00.0,38.6,31.8,20.6,0000.0,0012.94,0005.21,0004.46
2022-07-23 14:34:00,,0826.0,5.01,0.00,29.9,28.8,00.0,38.6,31.9,20.6,0000.0,0013.03,0005.21,0004.47
2022-07-23 14:35:00,,0825.9,5.00,0.00,29.9,28.6,00.0,38.6,31.9,21.1,0000.0,0012.80,0005.20,0004.47
2022-07-23 14:36:00,,0825.9,4.99,0.00,29.9,27.9,00.0,38.5,31.8,21.4,0000.0,0012.49,0005.16,0004.47
2022-07-23 14:37:00,,0825.8,5.01,0.00,29.9,27.6,00.0,38.5,31.7,21.8,0000.0,0011.90,0005.16,0004.47
2022-07-23 14:38:00,,0825.9,4.99,0.00,29.9,27.6,00.0,38.5,31.7,22.3,0000.0,0012.76,0005.21,0004.47
2022-07-23 14:39:00,,0825.9,5.00,0.00,29.8,27.8,00.0,38.5,31.6,22.6,0000.0,0013.49,0005.24,0004.46
2022-07-23 14:40:00,,0825.9,5.01,0.00,29.8,27.9,00.0,38.5,31.6,22.7,0000.0,0014.05,0005.25,0004.46
2022-07-23 14:41:00,,0826.0,5.00,0.00,29.8,28.1,00.0,38.5,31.6,21.6,0000.0,0013.43,0005.26,0004.47
2022-07-23 14:42:00,,0826.0,5.01,0.00,29.8,28.2,00.0,38.5,31.7,21.2,0000.0,0014.00,0005.30,0004.48
2022-07-23 14:43:00,,0826.0,5.00,0.00,29.8,28.4,00.0,38.5,31.7,20.8,0000.0,0013.83,0005.31,0004.47
2022-07-23 14:44:00,,0825.9,5.00,0.00,29.8,28.5,00.0,38.6,31.8,20.7,0000.0,0012.57,0005.31,0004.47
2022-07-23 14:45:00,,0826.0,5.01,0.00,29.9,28.6,00.0,38.6,31.8,20.9,0000.0,0012.27,0005.30,0004.47
2022-07-23 14:46:00,,0825.9,5.00,0.00,29.9,28.7,00.0,38.6,31.9,21.0,0000.0,0012.60,0005.31,0004.46
2022-07-23 14:47:00,,0825.9,5.00,0.00,29.9,28.7,00.0,38.6,31.9,21.2,0000.0,0012.81,0005.32,0004.45
2022-07-23 14:48:00,,0825.9,4.99,0.00,29.9,28.1,00.0,38.6,31.8,21.3,0000.0,0012.81,0005.33,0004.47
2022-07-23 14:49:00,,0825.9,5.01,0.00,29.9,27.6,00.0,38.5,31.7,21.6,0000.0,0012.18,0005.32,0004.47
2022-07-23 14:50:00,,0826.0,4.99,0.00,29.9,27.6,00.0,38.5,31.7,21.9,0000.0,0011.35,0005.29,0004.48
2022-07-23 14:51:00,,0826.0,5.01,0.00,29.8,27.7,00.0,38.5,31.6,22.2,0000.0,0010.96,0005.30,0004.48
2022-07-23 14:52:00,,0825.9,5.00,0.00,29.8,27.8,00.0,38.5,31.6,22.3,0000.0,0011.56,0005.31,0004.48
2022-07-23 14:53:00,,0825.9,4.99,0.00,29.8,28.0,00.0,38.5,31.6,22.2,0000.0,0011.40,0005.34,0004.48
2022-07-23 14:54:00,,0825.9,4.99,0.00,29.8,28.2,00.0,38.5,31.7,22.9,0000.0,0010.97,0005.29,0004.47
2022-07-23 14:55:00,,0825.9,5.00,0.00,29.8,28.3,00.0,38.5,31.7,22.7,0000.0,0010.93,0005.26,0004.46
2022-07-23 14:56:00,,0825.9,5.01,0.00,29.8,28.5,00.0,38.6,31.8,22.6,0000.0,0010.82,0005.23,0004.46
2022-07-23 14:57:00,,0826.0,5.01,0.00,29.9,28.6,00.0,38.6,31.8,22.6,0000.0,0011.05,0005.19,0004.45
2022-07-23 14:58:00,,0825.9,5.00,0.00,29.9,28.6,00.0,38.6,31.9,22.5,0000.0,0010.84,0005.21,0004.45
2022-07-23 14:59:00,,0825.9,4.99,0.00,29.9,28.1,00.0,38.5,31.8,22.6,0000.0,0010.88,0005.25,0004.45
